Weather History for Guthrie, OK

Change the Weather History Date:

Tuesday, July 24, 2012

  Actual Average Record
Temperature  
Mean Temperature 92 °F -  
Max Temperature 102 °F 96 °F 111 °F (2011)
Min Temperature 81 °F 71 °F 59 °F (1970)
Cooling Degree Days 26    
Growing Degree Days 42 (Base 50)    
Moisture  
Dew Point 64 °F    
Average Humidity 42    
Maximum Humidity 60    
Minimum Humidity 26    
Precipitation  
Precipitation 0.00 in - - ()
Sea Level Pressure  
Sea Level Pressure 29.92 in    
Wind  
Wind Speed 12 mph (South)    
Max Wind Speed 17 mph    
Max Gust Speed 25 mph    
Visibility 10 miles    
Events      
Averages and records for this station are not official NWS values.
T = Trace of Precipitation, MM = Missing Value Source: NWS Daily Summary

Daily Weather History Graph

Daily Weather History Graph

Search for Another Location

Airport:

Trip Planner

Search our weather history database for the weather conditions in past years. The results will help you decide how hot, cold, wet, or windy it might be!

Date:

Astronomy

Jul. 24, 2012 Rise Set
Actual Time 6:31 AM CDT 8:40 PM CDT
Civil Twilight 6:02 AM CDT 9:09 PM CDT
Nautical Twilight 5:27 AM CDT 9:44 PM CDT
Astronomical Twilight 4:49 AM CDT 10:21 PM CDT
Moon 12:16 PM CDT (7/24) 11:44 PM CDT (7/24)
Length of Visible Light 15h 06m
Length of Day
14h 08m
Waxing Crescent, 32% of the Moon is Illuminated
Jul 24
Waxing Crescent
Jul 26
First Quarter
Aug 1
Full
Aug 9
Last Quarter
Aug 17
New

Hourly Weather History & Observations

Time (CDT) Temp. Heat Index Dew Point Humidity Pressure Visibility Wind Dir Wind Speed Gust Speed Precip Events Conditions
12:53 AM 84.9 °F 86.1 °F 64.0 °F 49% 29.98 in 10.0 mi South 10.4 mph - N/A   Clear
1:53 AM 84.0 °F 85.8 °F 64.9 °F 53% 29.98 in 10.0 mi South 10.4 mph - N/A   Clear
2:53 AM 82.9 °F 85.0 °F 66.0 °F 56% 29.98 in 10.0 mi South 9.2 mph - N/A   Clear
3:53 AM 82.0 °F 84.1 °F 66.0 °F 58% 29.97 in 10.0 mi South 11.5 mph - N/A   Clear
4:53 AM 81.0 °F 83.0 °F 66.0 °F 60% 29.97 in 10.0 mi South 10.4 mph - N/A   Clear
5:53 AM 81.0 °F 82.7 °F 64.9 °F 58% 29.98 in 10.0 mi South 12.7 mph - N/A   Clear
6:53 AM 81.0 °F 82.7 °F 64.9 °F 58% 29.98 in 10.0 mi South 11.5 mph 17.3 mph N/A   Clear
7:53 AM 82.9 °F 85.0 °F 66.0 °F 56% 29.99 in 10.0 mi South 11.5 mph - N/A   Clear
8:53 AM 86.0 °F 88.8 °F 66.9 °F 53% 29.99 in 10.0 mi SSW 16.1 mph - N/A   Clear
9:53 AM 89.1 °F 91.3 °F 66.0 °F 46% 29.98 in 10.0 mi SSW 13.8 mph 19.6 mph N/A   Clear
10:53 AM 91.9 °F 94.5 °F 66.0 °F 42% 29.97 in 10.0 mi SSW 15.0 mph 20.7 mph N/A   Clear
11:53 AM 96.1 °F 99.3 °F 66.0 °F 37% 29.96 in 10.0 mi SSW 13.8 mph 21.9 mph N/A   Clear
12:53 PM 97.0 °F 99.3 °F 64.0 °F 34% 29.94 in 10.0 mi South 17.3 mph 20.7 mph N/A   Clear
1:53 PM 100.0 °F 103.0 °F 64.0 °F 31% 29.91 in 10.0 mi SSW 15.0 mph 21.9 mph N/A   Partly Cloudy
2:53 PM 99.0 °F 100.5 °F 62.1 °F 30% 29.88 in 10.0 mi South 12.7 mph 23.0 mph N/A   Partly Cloudy
3:53 PM 102.0 °F 103.9 °F 62.1 °F 27% 29.86 in 10.0 mi South 15.0 mph 25.3 mph N/A   Partly Cloudy
4:53 PM 100.9 °F 102.1 °F 61.0 °F 27% 29.84 in 10.0 mi SSW 10.4 mph 20.7 mph N/A   Scattered Clouds
5:53 PM 102.0 °F 103.3 °F 61.0 °F 26% 29.82 in 10.0 mi South 13.8 mph 19.6 mph N/A   Scattered Clouds
6:53 PM 99.0 °F 100.5 °F 62.1 °F 30% 29.81 in 10.0 mi South 15.0 mph 25.3 mph N/A   Clear
7:53 PM 97.0 °F 97.8 °F 62.1 °F 31% 29.82 in 10.0 mi South 10.4 mph 18.4 mph N/A   Clear
8:53 PM 93.0 °F 93.8 °F 62.1 °F 36% 29.83 in 10.0 mi SSE 10.4 mph - N/A   Clear
9:53 PM 91.0 °F 91.5 °F 62.1 °F 38% 29.83 in 10.0 mi South 11.5 mph 20.7 mph N/A   Clear
10:53 PM 90.0 °F 90.6 °F 63.0 °F 40% 29.85 in 10.0 mi South 13.8 mph 21.9 mph N/A   Clear
11:53 PM 88.0 °F 88.7 °F 63.0 °F 43% 29.85 in 10.0 mi South 10.4 mph - N/A   Clear